Location: Rioux
(40.7500°S, 175.7500°E)
Time: 22:31:31
(UTC+00:00)

CORIOLIS - Visible Passes

Search period start: 08 September 2024 00:00
Search period end: 18 September 2024 00:00
Orbit: 817 x 836 km, 98.7° (Epoch: 08 September)

Date Brightness Start Highest point End Pass type
(mag) Time Alt. Az. Time Alt. Az. Time Alt. Az.
08 Sep 6.1 07:38:33 10° S 07:43:13 30° WSW 07:47:51 10° NW visible
08 Sep 4.9 17:20:41 10° NNE 17:25:57 58° ESE 17:31:16 10° S visible
09 Sep 5.4 07:19:26 10° S 07:24:33 44° WSW 07:29:37 10° NW visible
09 Sep 5.6 17:02:17 10° NE 17:07:15 39° ESE 17:12:16 10° S visible
10 Sep 4.7 07:00:28 10° S 07:05:50 64° WSW 07:11:10 10° NNW visible
10 Sep 6.3 16:44:07 10° ENE 16:48:37 28° ESE 16:53:08 10° S visible
11 Sep 4.2 06:41:37 10° SSE 06:47:04 88° ENE 06:52:28 10° NNW visible
11 Sep 7.2 08:24:03 10° SSW 08:26:29 13° WSW 08:28:56 10° W visible
11 Sep 6.8 16:26:16 10° ENE 16:30:01 19° ESE 16:33:46 10° SSE visible
12 Sep 4.2 06:22:53 10° SSE 06:28:15 60° E 06:33:34 10° N visible
12 Sep 6.8 08:04:16 10° SSW 08:07:58 19° WSW 08:11:38 10° WNW visible
12 Sep 7.2 16:08:56 10° E 16:11:29 14° ESE 16:14:02 10° SSE visible
12 Sep 4.2 17:45:31 10° NNE 17:50:55 86° WNW 17:56:22 10° SSW visible
13 Sep 6.3 07:44:54 10° S 07:49:22 27° WSW 07:53:49 10° WNW visible
13 Sep 4.7 17:26:49 10° NNE 17:32:09 66° ESE 17:37:31 10° S visible
14 Sep 5.7 07:25:44 10° S 07:30:43 39° WSW 07:35:41 10° NW visible
14 Sep 5.4 17:08:20 10° NE 17:13:25 45° ESE 17:18:33 10° S visible
15 Sep 4.9 07:06:42 10° S 07:12:01 56° WSW 07:17:17 10° NNW visible
15 Sep 6.1 16:50:06 10° NE 16:54:45 31° ESE 16:59:27 10° S visible
16 Sep 4.3 06:47:48 10° SSE 06:53:16 83° WSW 06:58:40 10° NNW visible
16 Sep 7.4 08:30:47 10° SW 08:32:36 12° WSW 08:34:23 10° WSW visible
16 Sep 6.7 16:32:07 10° ENE 16:36:08 22° ESE 16:40:10 10° SSE visible
17 Sep 4.2 06:29:01 10° SSE 06:34:27 68° ENE 06:39:50 10° N visible
17 Sep 7.0 08:10:42 10° SSW 08:14:03 17° WSW 08:17:26 10° W visible
17 Sep 7.2 16:14:34 10° E 16:17:34 15° ESE 16:20:35 10° SSE visible
